Meridian NAS, MS

8:47 AM CDT on May 28, 2017 (GMT -0500)
Meridian Naval Air Station

Weather History for KNMM - December, 2013

Change the Weather History Date:

Wednesday, December 4, 2013

  Actual Average Record
Temperature  
Mean Temperature 72 °F -  
Max Temperature 78 °F 59 °F 78 °F (2013)
Min Temperature 66 °F 39 °F 24 °F (2000)
Cooling Degree Days 7    
Growing Degree Days 22 (Base 50)    
Moisture  
Dew Point 64 °F    
Average Humidity 83    
Maximum Humidity 93    
Minimum Humidity 58    
Precipitation  
Precipitation 0.00 in - - ()
Sea Level Pressure  
Sea Level Pressure 29.90 in    
Wind  
Wind Speed 6 mph (South)    
Max Wind Speed 13 mph    
Max Gust Speed 23 mph    
Visibility 9 miles    
Events      
Averages and records for this station are not official NWS values.
T = Trace of Precipitation, MM = Missing Value Source: NWS Daily Summary

Daily Weather History Graph

Daily Weather History Graph

Search for Another Location

Airport or City:

Trip Planner

Search our weather history database for the weather conditions in past years. The results will help you decide how hot, cold, wet, or windy it might be!

Date:

Astronomy

Dec. 04, 2013 Rise Set
Actual Time 6:40 AM CST 4:48 PM CST
Civil Twilight 6:13 AM CST 5:15 PM CST
Nautical Twilight 5:43 AM CST 5:45 PM CST
Astronomical Twilight 5:13 AM CST 6:15 PM CST
Moon 8:10 AM CST (12/4) 6:55 PM CST (12/4)
Length of Visible Light 11h 01m
Length of Day
10h 07m
Waxing Crescent, 4% of the Moon is Illuminated
Dec 4
Waxing Crescent
Dec 9
First Quarter
Dec 17
Full
Dec 25
Last Quarter
Jan 1
New

Hourly Weather History & Observations

Time (CST) Temp. Dew Point Humidity Pressure Visibility Wind Dir Wind Speed Gust Speed Precip Events Conditions
12:56 AM 66.0 °F 63.0 °F 90% 29.84 in 10.0 mi South 5.8 mph - N/A   Overcast
1:25 AM 66.0 °F 63.0 °F 90% 29.82 in 10.0 mi South 4.6 mph - N/A   Mostly Cloudy
1:34 AM 66.0 °F 63.0 °F 90% 29.82 in 10.0 mi South 5.8 mph - N/A   Mostly Cloudy
1:56 AM 66.0 °F 63.0 °F 90% 29.84 in 10.0 mi South 4.6 mph - N/A   Overcast
2:37 AM 66.0 °F 63.0 °F 90% 29.83 in 10.0 mi South 4.6 mph - N/A   Overcast
2:56 AM 66.0 °F 63.0 °F 90% 29.85 in 10.0 mi South 6.9 mph - N/A   Overcast
3:12 AM 66.0 °F 63.0 °F 90% 29.83 in 10.0 mi South 3.5 mph - N/A   Overcast
3:42 AM 66.0 °F 63.0 °F 90% 29.83 in 10.0 mi South 6.9 mph - N/A   Overcast
3:56 AM 66.9 °F 63.0 °F 87% 29.86 in 10.0 mi SSW 6.9 mph - N/A   Overcast
4:56 AM 68.0 °F 63.0 °F 84% 29.87 in 10.0 mi SSW 4.6 mph - N/A   Overcast
5:25 AM 68.0 °F 63.0 °F 84% 29.85 in 10.0 mi SSW 8.1 mph - N/A   Overcast
5:56 AM 68.0 °F 63.0 °F 84% 29.88 in 9.0 mi Variable 5.8 mph - N/A   Overcast
6:05 AM 68.0 °F 63.0 °F 84% 29.86 in 9.0 mi South 4.6 mph - N/A   Overcast
6:56 AM 66.9 °F 63.0 °F 87% 29.91 in 6.0 mi SSW 5.8 mph - N/A   Mostly Cloudy
7:56 AM 68.0 °F 64.0 °F 87% 29.94 in 5.0 mi SSW 3.5 mph - N/A   Overcast
8:56 AM 70.0 °F 64.0 °F 81% 29.96 in 5.0 mi South 8.1 mph - N/A   Haze
9:05 AM 69.1 °F 64.0 °F 84% 29.93 in 5.0 mi South 8.1 mph - N/A   Haze
9:56 AM 71.1 °F 64.0 °F 78% 29.96 in 5.0 mi SSW 8.1 mph - N/A   Haze
10:56 AM 73.0 °F 64.0 °F 73% 29.95 in 6.0 mi SSW 9.2 mph - N/A   Haze
11:04 AM 73.0 °F 64.0 °F 73% 29.92 in 6.0 mi SSW 12.7 mph 20.7 mph N/A   Haze
11:56 AM 75.9 °F 64.0 °F 67% 29.91 in 9.0 mi South 10.4 mph 19.6 mph N/A   Mostly Cloudy
12:56 PM 77.0 °F 62.1 °F 60% 29.88 in 10.0 mi SSW 9.2 mph 21.9 mph N/A   Mostly Cloudy
1:56 PM 78.1 °F 62.1 °F 58% 29.87 in 10.0 mi South 9.2 mph 23.0 mph N/A   Scattered Clouds
2:56 PM 78.1 °F 62.1 °F 58% 29.86 in 10.0 mi South 11.5 mph 18.4 mph N/A   Mostly Cloudy
3:56 PM 75.0 °F 63.0 °F 66% 29.86 in 10.0 mi South 6.9 mph - N/A   Mostly Cloudy
4:56 PM 72.0 °F 63.0 °F 73% 29.88 in 10.0 mi SE 3.5 mph - N/A   Mostly Cloudy
5:56 PM 69.1 °F 63.0 °F 81% 29.91 in 10.0 mi SE 4.6 mph - N/A   Mostly Cloudy
6:56 PM 68.0 °F 63.0 °F 84% 29.93 in 10.0 mi SSE 4.6 mph - N/A   Mostly Cloudy
7:56 PM 66.9 °F 63.0 °F 87% 29.93 in 10.0 mi SSE 5.8 mph - N/A   Mostly Cloudy
8:56 PM 66.9 °F 64.0 °F 90% 29.95 in 10.0 mi SSE 3.5 mph - N/A   Mostly Cloudy
9:32 PM 66.9 °F 64.9 °F 93% 29.93 in 10.0 mi SSE 4.6 mph - N/A   Mostly Cloudy
9:56 PM 66.9 °F 64.0 °F 90% 29.96 in 8.0 mi SSE 5.8 mph - N/A   Mostly Cloudy
10:11 PM 66.9 °F 64.9 °F 93% 29.94 in 8.0 mi SSE 3.5 mph - N/A   Mostly Cloudy
10:56 PM 69.1 °F 66.0 °F 90% 29.98 in 10.0 mi South 5.8 mph - N/A   Overcast
11:19 PM 69.1 °F 66.0 °F 90% 29.95 in 10.0 mi South 4.6 mph - N/A   Overcast
11:56 PM 69.1 °F 66.0 °F 90% 29.97 in 10.0 mi South 5.8 mph - N/A   Overcast